Regional Weather Roundup
Issued by NWS Newport/Morehead, NC

Current Version | Previous Version | Text Only | Print | Product List | Glossary On
Versions: 1 2 3 4 5 6 7 8 9 10 11 12 13 14 15 16 17 18 19 20 21 22 23 24 25 26 27 28 29 30 31 32 33 34 35 36 37 38 39 40 41 42 43 44 45 46 47 48 49 50
000
ASUS42 KMHX 230213
RWRMHX
WEATHER ROUNDUP FOR EASTERN NORTH CAROLINA
NATIONAL WEATHER SERVICE NEWPORT/MOREHEAD CITY NC
900 PM EST WED FEB 22 2017

NOTE: "FAIR" INDICATES FEW OR NO CLOUDS BELOW 12,000 FEET
WITH NO SIGNIFICANT WEATHER AND/OR OBSTRUCTIONS TO VISIBILITY

NCZ015>017-031-032-045>047-102-103-230300-
NORTH COAST

CITY           SKY/WX    TMP DP  RH WIND       PRES   REMARKS
EDENTON        MOCLDY    62  53  72 S5        29.97S
ELIZABETH CITY CLOUDY    60  51  72 SE6       29.97S
KITTY HAWK     NOT AVBL
MANTEO         CLOUDY    60  50  69 S6        29.98S

$$

NCZ045>047-081-094-103-104-230300-
CENTRAL COAST

CITY           SKY/WX    TMP DP  RH WIND       PRES   REMARKS
FRISCO         CLOUDY    66  55  67 S8        29.98R

$$

NCZ095-097-098-100-101-230300-
SOUTHERN COAST

CITY           SKY/WX    TMP DP  RH WIND       PRES   REMARKS
BEAUFORT       CLOUDY    62  55  77 CALM      29.97S
CEDAR ISLAND   NOT AVBL
JACKSONVILLE   CLOUDY    61  55  81 SE6       29.96S
PINEY ISLAND   CLOUDY   N/A N/A N/A S5        29.96F
WILMINGTON     CLOUDY    59  54  83 E3        29.96R


$$

NCZ011>013-027>030-043-044-078>080-089-090>093-098-230300-
COASTAL PLAIN

CITY           SKY/WX    TMP DP  RH WIND       PRES   REMARKS
AHOSKIE          N/A     57  52  85 CALM      29.96S
CLINTON        CLOUDY    63  55  75 CALM      29.95F
ELIZABETHTOWN  MOCLDY    62  55  77 CALM      29.96R
GOLDSBORO      CLOUDY    64  56  74 S6        29.94S
GREENVILLE     CLOUDY    64  54  68 S7        29.98S
HAVELOCK       MOCLDY    57  52  83 SE3       29.98S
KENANSVILLE    NOT AVBL
KINSTON        MOCLDY    63  54  72 SE5       29.97S
NEW BERN       CLOUDY    57  53  86 CALM      29.97S
RICHLANDS      CLOUDY    55  52  89 CALM      29.97S
ROCKY MOUNT    MOCLDY    59  54  83 CALM      29.95S
WASHINGTON     MOCLDY    60  53  77 SE3       29.97S
WHITEVILLE     CLOUDY    63  54  70 CALM      29.95R

$$

AMZ130-135-150-152-154-156-158-170-250-252-270-ANZ085-086-088-633-658-670-230300-
MARINE OBSERVATIONS

STATION/POSITION TIME  TEMP    WIND        PRES    WAVE   SWELL
                       AIR SEA DIR/SP/G            HT/PER HT/PER
                 (UTC) (F)     (DEG/KT/KT) (MB)    (FT/S) (FT/S)
CHESAPEAKE LIGHT NOT AVBL
64 E VA BEACH    0150   58 54  180/  6/  6 1015.1    4/11   3/11
DUCK             0130   54 48  150/  9/  9 1014.5
2 E DUCK         0200      50                N/A     2/10
OREGON INLET     0148          100/  4/  5   N/A
13E OREGON INLT  NOT AVBL
HATTERAS CG      0148   65 60  170/  4/  7 1014.7
DIAMOND BUOY     0150   69 74  170/ 10/ 16 1015.2    4/10   3/10
CAPE LOOKOUT     0200   64     140/  8/  9 1014.6
BEAUFORT LAB     0148   62 54   CALM  /  1 1013.9
30 SE NEW RVR IN 0108   68     160/ 12/ 16 1014.5
30 SE NEW RVR IN 0143      69                N/A     4/ 5   2/12
27 SE WRIGHTSVLE 0108   67 65  130/ 10/ 14 1013.4
5 SE WRIGHTSVLE  0108   60 58   80/  6/  8 1014.1
225 S CAPE HAT   0150   67 70  110/ 17/ 19 1014.8    5/10   3/10
41 SE CHARLESTON 0150   70 70  100/ 17/ 21 1011.5    6/ 6   3/12

$$




USA.gov is the U.S. government's official web portal to all federal, state and local government web resources and services.